Location: Br�znic
(45.9167°N, 22.6500°E)
Time: 15:36:32
(UTC+00:00)

SJ 16-02 - Pass Details

Date: 03 March 2021
Orbit: 605 x 617 km, 75.0° (Epoch: 12 April)

Event Time Altitude Azimuth Distance (km) Brightness Sun altitude
Rises 19:35:43 0° 333° (NNW) 2,883 5.5 -33.9°
Reaches altitude 10° 19:38:03 10° 327° (NNW) 1,976 4.6 -34.3°
Enters shadow 19:39:37 20° 317° (NW) 1,413 3.7 -34.5°
